1518714000.18,62182,11.25,73126.8,-14.43,-44.73,-44.41,0,*6C
1518714001.43,62183,11.25,73124.0,-14.43,-44.79,-44.53,0,*64
1518714002.71,62184,11.25,73124.8,-14.43,-45.21,-44.93,0,*63
1518714003.98,62185,11.25,73128.0,-14.43,-45.33,-44.93,0,*61
1518714005.22,62186,11.25,73130.0,-14.43,-45.33,-44.79,0,*66
1518714006.47,62187,11.19,73124.3,-14.45,-45.27,-44.87,0,*65
1518714007.72,62188,11.25,73128.3,-14.45,-45.07,-44.79,0,*69
1518714008.95,62189,11.25,73128.8,-14.45,-45.21,-44.79,0,*6C
1518714010.19,62190,11.19,73124.3,-14.45,-45.07,-44.79,0,*60
1518714011.45,62191,11.19,73124.0,-14.47,-45.21,-44.87,0,*66
1518714012.73,62192,11.19,73126.5,-14.47,-45.27,-44.99,0,*6C
1518714013.98,62193,11.19,73126.3,-14.47,-45.21,-44.99,0,*6B
1518714015.22,62194,11.25,73124.0,-14.47,-45.41,-44.99,0,*6A
1518714016.47,62195,11.25,73126.8,-14.45,-45.27,-44.99,0,*69
1518714017.75,62196,11.19,73122.3,-14.47,-45.27,-44.99,0,*68
1518714018.97,62197,11.19,73124.0,-14.45,-45.21,-44.79,0,*63
1518714020.22,62198,11.25,73124.8,-14.47,-44.99,-44.79,0,*6C
1518714021.47,62199,11.25,73126.3,-14.47,-44.99,-44.87,0,*6C
1518714022.75,62200,11.25,73128.0,-14.47,-45.07,-44.79,0,*68
1518714024.04,62201,11.19,73126.5,-14.47,-45.07,-44.67,0,*66
1518714025.33,62202,11.19,73124.8,-14.47,-44.67,-44.47,0,*60
1518714026.57,62203,11.19,73124.5,-14.45,-44.67,-44.41,0,*65
1518714027.82,62204,11.25,73128.8,-14.47,-44.61,-44.41,0,*66
1518714029.08,62205,11.25,73130.3,-14.45,-44.67,-44.47,0,*65
1518714030.31,62206,11.25,73128.0,-14.45,-44.87,-44.61,0,*6C
1518714031.58,62207,11.25,73128.5,-14.45,-45.07,-44.67,0,*62
1518714032.83,62208,11.19,73122.8,-14.45,-45.07,-44.87,0,*63
1518714034.11,62209,11.19,73124.0,-14.47,-45.07,-44.87,0,*60
1518714035.35,62210,11.19,73122.5,-14.47,-44.99,-44.61,0,*66
1518714036.61,62211,11.19,73124.5,-14.47,-44.79,-44.61,0,*69
1518714037.9,62212,11.25,73128.5,-14.47,-44.67,-44.47,0,*61
1518714039.14,62213,11.19,73126.0,-14.45,-45.21,-44.67,0,*63
1518714040.41,62214,11.19,73124.5,-14.47,-44.67,-44.61,0,*63
1518714041.64,62215,11.25,73124.3,-14.45,-44.87,-44.61,0,*6E
1518714042.87,62216,11.19,73126.5,-14.45,-44.87,-44.79,0,*64
1518714044.14,62217,11.19,73126.0,-14.47,-45.07,-44.99,0,*60
1518714045.37,62218,11.19,73124.5,-14.45,-45.21,-44.99,0,*69
1518714046.6,62219,11.19,73120.8,-14.49,-45.33,-45.07,0,*61
1518714047.88,62220,11.19,73122.3,-14.47,-45.27,-44.99,0,*66
1518714049.18,62221,11.25,73124.5,-14.47,-45.07,-44.67,0,*64
1518714050.45,62222,11.19,73126.0,-14.49,-44.93,-44.67,0,*65
1518714051.67,62223,11.19,73122.5,-14.49,-45.13,-44.87,0,*63
1518714052.92,62224,11.19,73126.0,-14.49,-45.13,-44.93,0,*61
1518714054.2,62225,11.19,73122.0,-14.47,-44.87,-44.67,0,*69
1518714055.45,62226,11.19,73124.8,-14.49,-44.87,-44.67,0,*64
1518714056.69,62227,11.19,73124.5,-14.49,-44.53,-44.47,0,*6E
1518714057.94,62228,11.19,73126.8,-14.49,-44.87,-44.47,0,*68
1518714059.17,62229,11.19,73126.3,-14.49,-44.53,-44.27,0,*66
1518714060.44,62230,11.19,73124.3,-14.47,-44.47,-44.27,0,*65
1518714061.71,62231,11.19,73126.0,-14.47,-44.47,-44.27,0,*64
1518714063.0,62232,11.19,73128.0,-14.47,-44.47,-44.47,0,*61
1518714064.23,62233,11.25,73126.8,-14.45,-44.87,-44.79,0,*63
1518714065.51,62234,11.25,73130.8,-14.47,-44.87,-44.67,0,*69
1518714066.8,62235,11.19,73126.3,-14.47,-44.67,-44.47,0,*64
1518714068.07,62236,11.19,73124.5,-14.47,-44.79,-44.47,0,*68
1518714069.33,62237,11.19,73124.3,-14.47,-44.87,-44.61,0,*6C
1518714070.6,62238,11.19,73122.3,-14.47,-44.79,-44.47,0,*66
1518714071.85,62239,11.19,73124.5,-14.45,-44.41,-44.21,0,*6E
1518714073.07,62240,11.19,73120.5,-14.45,-44.61,-44.41,0,*64
1518714074.32,62241,11.19,73124.0,-14.47,-44.87,-44.61,0,*6D
1518714075.59,62242,11.19,73130.8,-14.47,-44.61,-44.47,0,*62
1518714076.86,62243,11.19,73128.3,-14.47,-44.47,-44.27,0,*61
1518714078.11,62244,11.19,73126.0,-14.45,-44.27,-44.01,0,*66
1518714079.37,62245,11.19,73120.8,-14.45,-44.67,-44.47,0,*61
1518714080.6,62246,11.19,73126.0,-14.45,-44.61,-44.41,0,*62
1518714081.87,62247,11.19,73126.5,-14.45,-44.47,-44.21,0,*61
1518714083.12,62248,11.19,73120.3,-14.45,-44.27,-44.01,0,*6A
1518714084.34,62249,11.19,73116.3,-14.45,-44.61,-44.27,0,*6D
1518714085.59,62250,11.19,73126.5,-14.45,-44.47,-44.41,0,*61
1518714086.86,62251,11.19,73122.5,-14.43,-44.41,-44.13,0,*67
1518714088.1,62252,11.19,73124.0,-14.43,-44.61,-44.53,0,*62
1518714089.35,62253,11.19,73120.3,-14.45,-44.47,-44.27,0,*62
1518714090.64,62254,11.19,73122.5,-14.43,-44.33,-44.21,0,*66
1518714091.91,62255,11.19,73120.8,-14.43,-44.41,-44.33,0,*61
1518714093.18,62256,11.19,73122.3,-14.43,-44.41,-44.33,0,*62
1518714094.45,62257,11.19,73120.8,-14.43,-44.41,-44.21,0,*60
1518714095.73,62258,11.19,73122.8,-14.43,-44.21,-44.07,0,*6D
1518714097.02,62259,11.19,73120.5,-14.43,-44.33,-44.33,0,*68
1518714098.29,62260,11.19,73126.8,-14.43,-44.41,-44.33,0,*67
1518714099.57,62261,11.19,73128.5,-14.43,-44.73,-44.41,0,*62
1518714100.84,62262,11.19,73122.0,-14.39,-44.13,-44.07,0,*68
1518714102.14,62263,11.19,73120.3,-14.43,-44.33,-44.21,0,*62
1518714103.41,62264,11.19,73122.8,-14.43,-44.41,-44.21,0,*60
1518714104.65,62265,11.19,73124.8,-14.43,-44.61,-44.53,0,*66
1518714105.92,62266,11.19,73122.8,-14.43,-44.41,-44.21,0,*62
1518714107.17,62267,11.19,73126.3,-14.39,-44.61,-44.61,0,*68
1518714108.47,62268,11.19,73126.5,-14.39,-44.73,-44.73,0,*67
1518714109.75,62269,11.19,73120.5,-14.43,-44.79,-44.73,0,*61
1518714111.06,62270,11.19,73120.5,-14.43,-44.93,-44.73,0,*6D
1518714112.31,62271,11.19,73124.5,-14.43,-44.79,-44.53,0,*6A
1518714113.55,62272,11.19,73124.8,-14.43,-44.53,-44.41,0,*62
1518714114.82,62273,11.19,73122.3,-14.43,-44.41,-44.33,0,*65
1518714116.07,62274,11.19,73124.0,-14.43,-44.61,-44.53,0,*66
1518714117.34,62275,11.19,73126.0,-14.43,-44.73,-44.61,0,*65
1518714118.58,62276,11.19,73130.0,-14.43,-44.61,-44.53,0,*64
1518714119.85,62277,11.19,73130.0,-14.43,-44.41,-44.33,0,*61
1518714121.12,62278,11.19,73122.5,-14.43,-44.41,-44.33,0,*6E
1518714122.39,62279,11.19,73124.3,-14.43,-44.73,-44.53,0,*68
1518714123.66,62280,11.19,73126.0,-14.43,-44.41,-44.21,0,*6A
1518714124.94,62281,11.19,73126.3,-14.43,-44.41,-44.21,0,*6B
1518714126.23,62282,11.19,73128.8,-14.43,-44.33,-44.13,0,*6C
1518714127.53,62283,11.19,73126.0,-14.39,-44.33,-44.21,0,*61
1518714128.8,62284,11.19,73124.3,-14.43,-44.41,-44.21,0,*6E
1518714130.1,62285,11.19,73122.3,-14.43,-44.33,-44.33,0,*69
1518714131.34,62286,11.19,73116.5,-14.43,-44.61,-44.41,0,*68
1518714132.61,62287,11.19,73120.5,-14.39,-44.73,-44.53,0,*64
1518714133.86,62288,11.19,73120.5,-14.43,-44.61,-44.53,0,*65
1518714135.11,62289,11.19,73124.5,-14.43,-44.61,-44.61,0,*65
1518714136.35,62290,11.19,73122.5,-14.43,-44.41,-44.41,0,*6D
1518714137.62,62291,11.19,73124.0,-14.43,-44.41,-44.33,0,*69
1518714138.91,62292,11.19,73120.0,-14.43,-44.33,-44.21,0,*6C
1518714140.19,62293,11.19,73122.3,-14.39,-44.21,-44.07,0,*67
1518714141.44,62294,11.19,73120.5,-14.43,-43.95,-43.75,0,*67
1518714142.68,62295,11.19,73122.3,-14.39,-43.95,-43.87,0,*66
1518714143.95,62296,11.19,73122.3,-14.37,-44.13,-44.13,0,*68
1518714145.2,62297,11.19,73124.0,-14.37,-44.47,-44.53,0,*6C
1518714146.44,62298,11.19,73122.0,-14.37,-44.53,-44.47,0,*63
1518714147.74,62299,11.19,73116.3,-14.39,-44.93,-44.73,0,*67
1518714149.05,62300,11.19,73120.5,-14.43,-44.93,-44.93,0,*65
1518714150.3,62301,11.19,73126.3,-14.39,-44.79,-44.61,0,*60
1518714151.58,62302,11.19,73120.8,-14.43,-44.73,-44.53,0,*65
1518714152.82,62303,11.19,73124.8,-14.43,-44.61,-44.41,0,*64
1518714154.08,62304,11.19,73128.3,-14.43,-44.79,-44.61,0,*68
1518714155.32,62305,11.19,73130.5,-14.39,-44.61,-44.61,0,*6D
1518714156.59,62306,11.19,73128.8,-14.39,-44.61,-44.33,0,*69
1518714157.84,62307,11.19,73126.8,-14.43,-44.07,-43.87,0,*6D
1518714159.08,62308,11.19,73124.0,-14.43,-44.41,-44.07,0,*6F
1518714160.36,62309,11.19,73122.8,-14.39,-44.41,-44.21,0,*67
1518714161.6,62310,11.19,73122.3,-14.39,-44.61,-44.41,0,*6B
1518714162.88,62311,11.19,73122.5,-14.39,-44.73,-44.61,0,*6B
1518714164.12,62312,11.19,73122.8,-14.43,-44.61,-44.61,0,*66
1518714165.39,62313,11.19,73122.3,-14.43,-44.41,-44.33,0,*62
1518714166.69,62314,11.19,73120.0,-14.43,-44.33,-44.21,0,*63
1518714167.96,62315,11.19,73124.0,-14.39,-44.73,-44.53,0,*6E
1518714169.24,62316,11.19,73124.8,-14.43,-44.93,-44.79,0,*66
1518714170.51,62317,11.19,73126.0,-14.43,-44.93,-44.61,0,*6E
1518714171.79,62318,11.19,73126.8,-14.39,-44.73,-44.41,0,*60
1518714173.06,62319,11.19,73126.0,-14.39,-44.73,-44.53,0,*62
1518714174.3,62320,11.19,73124.8,-14.43,-44.61,-44.53,0,*66
1518714175.55,62321,11.19,73126.5,-14.43,-44.61,-44.41,0,*64
1518714176.82,62322,11.19,73126.5,-14.43,-44.73,-44.53,0,*67
1518714178.06,62323,11.19,73126.5,-14.43,-44.61,-44.41,0,*66
1518714179.31,62324,11.19,73124.5,-14.43,-44.53,-44.41,0,*60
1518714180.58,62325,11.19,73126.8,-14.43,-44.73,-44.61,0,*61
1518714181.86,62326,11.19,73126.5,-14.43,-44.73,-44.41,0,*60
1518714183.11,62327,11.19,73128.0,-14.43,-44.79,-44.53,0,*68
1518714184.38,62328,11.19,73128.0,-14.43,-44.93,-44.61,0,*62
1518714185.63,62329,11.19,73130.5,-14.43,-44.79,-44.53,0,*66
1518714186.94,62330,11.19,73128.8,-14.43,-44.93,-44.73,0,*68
1518714188.19,62331,11.19,73126.0,-14.47,-44.99,-44.87,0,*6C
1518714189.41,62332,11.19,73128.0,-14.45,-45.21,-44.99,0,*60
1518714190.64,62333,11.19,73128.5,-14.45,-45.21,-44.87,0,*6E
1518714191.89,62334,11.19,73130.3,-14.45,-45.07,-44.87,0,*6D
1518714193.17,62335,11.19,73132.3,-14.47,-45.07,-44.87,0,*6E
1518714194.44,62336,11.19,73128.8,-14.47,-44.99,-44.67,0,*65
1518714195.69,62337,11.19,73130.8,-14.47,-44.79,-44.61,0,*6C
1518714196.98,62338,11.19,73128.8,-14.47,-44.67,-44.47,0,*68
1518714198.27,62339,11.19,73130.0,-14.47,-44.47,-44.47,0,*6B
1518714199.54,62340,11.19,73128.8,-14.47,-44.61,-44.47,0,*61
1518714200.8,62341,11.19,73130.5,-14.47,-44.67,-44.41,0,*60
1518714202.05,62342,11.19,73128.5,-14.45,-44.47,-44.41,0,*63
1518714203.27,62343,11.19,73134.5,-14.45,-44.61,-44.27,0,*66
1518714204.52,62344,11.19,73134.3,-14.47,-44.61,-44.41,0,*63
1518714205.78,62345,11.19,73134.3,-14.45,-44.67,-44.47,0,*60
1518714207.06,62346,11.19,73134.3,-14.45,-44.47,-44.21,0,*61
1518714208.35,62347,11.19,73130.0,-14.47,-44.47,-44.13,0,*63
1518714209.63,62348,11.19,73122.8,-14.47,-44.27,-44.01,0,*69
1518714210.93,62349,11.19,73122.3,-14.47,-44.21,-44.13,0,*6D
1518714212.17,62350,11.19,73122.0,-14.45,-44.47,-44.41,0,*60
1518714213.44,62351,11.19,73122.0,-14.45,-44.67,-44.47,0,*65
1518714214.71,62352,11.19,73124.3,-14.43,-44.53,-44.21,0,*67
1518714215.98,62353,11.19,73124.5,-14.47,-44.67,-44.61,0,*61
1518714217.23,62354,11.19,73124.3,-14.45,-44.87,-44.67,0,*6C
1518714218.5,62355,11.19,73128.0,-14.47,-44.79,-44.67,0,*6E
1518714219.75,62356,11.19,73132.3,-14.47,-44.61,-44.61,0,*62
1518714221.0,62357,11.19,73130.3,-14.47,-44.61,-44.41,0,*61
1518714222.27,62358,11.19,73130.3,-14.47,-44.67,-44.61,0,*6A
1518714223.52,62359,11.19,73128.8,-14.47,-44.79,-44.61,0,*64
1518714224.75,62360,11.13,73124.5,-14.45,-44.79,-44.61,0,*6C
1518714225.98,62361,11.19,73128.5,-14.45,-44.79,-44.61,0,*6D
1518714227.23,62362,11.19,73130.0,-14.47,-44.99,-44.87,0,*6A
1518714228.51,62363,11.19,73128.3,-14.47,-45.07,-44.87,0,*6D
1518714229.76,62364,11.19,73128.5,-14.47,-45.21,-44.99,0,*61
1518714231.03,62365,11.19,73128.5,-14.47,-44.87,-44.67,0,*6C
1518714232.28,62366,11.19,73132.0,-14.47,-44.79,-44.61,0,*68
1518714233.56,62367,11.19,73132.0,-14.47,-44.79,-44.67,0,*6F
1518714234.85,62368,11.19,73128.3,-14.47,-44.67,-44.47,0,*6D
1518714236.1,62369,11.19,73128.0,-14.49,-44.73,-44.53,0,*62
1518714237.35,62370,11.19,73128.3,-14.49,-45.07,-44.87,0,*61
1518714238.64,62371,11.19,73130.3,-14.47,-44.67,-44.67,0,*67
1518714239.92,62372,11.19,73130.3,-14.49,-44.93,-44.73,0,*64
1518714241.17,62373,11.19,73134.5,-14.47,-45.21,-44.87,0,*68
1518714242.42,62374,11.19,73134.8,-14.47,-45.21,-44.87,0,*6F
1518714243.68,62375,11.19,73134.5,-14.49,-45.07,-44.87,0,*64
1518714244.93,62376,11.19,73132.8,-14.49,-44.87,-44.67,0,*60
1518714246.21,62377,11.19,73132.8,-14.49,-44.93,-44.73,0,*61
1518714247.46,62378,11.19,73130.5,-14.49,-44.73,-44.53,0,*62
1518714248.72,62379,11.19,73126.3,-14.49,-44.67,-44.47,0,*63
1518714250.0,62380,11.19,73128.5,-14.49,-44.93,-44.73,0,*69
1518714251.27,62381,11.19,73132.3,-14.53,-44.73,-44.67,0,*68
1518714252.5,62382,11.19,73128.5,-14.49,-44.53,-44.27,0,*66
1518714253.77,62383,11.19,73128.8,-14.53,-44.33,-44.21,0,*6C
1518714255.05,62384,11.19,73128.5,-14.53,-44.21,-44.01,0,*6A
1518714256.32,62385,11.19,73130.8,-14.49,-44.33,-44.21,0,*61
1518714257.58,62386,11.19,73130.8,-14.47,-44.79,-44.61,0,*66
1518714258.83,62387,11.19,73136.3,-14.49,-44.87,-44.67,0,*6E
1518714260.1,62388,11.19,73134.3,-14.49,-44.67,-44.33,0,*6E
1518714261.35,62389,11.19,73130.5,-14.47,-44.61,-44.41,0,*62
1518714262.59,62390,11.19,73130.0,-14.45,-44.47,-44.27,0,*6C
1518714263.84,62391,11.19,73130.3,-14.47,-44.61,-44.27,0,*6B
1518714265.09,62392,11.19,73130.0,-14.45,-44.47,-44.27,0,*6E
1518714266.31,62393,11.19,73130.0,-14.45,-44.61,-44.41,0,*6B
1518714267.56,62394,11.19,73128.3,-14.47,-44.61,-44.41,0,*6E
1518714268.83,62395,11.19,73128.5,-14.47,-44.27,-44.01,0,*69
1518714270.11,62396,11.19,73130.3,-14.47,-44.47,-44.27,0,*68
1518714271.35,62397,11.19,73132.3,-14.45,-44.47,-44.41,0,*6B
1518714272.6,62398,11.19,73128.5,-14.47,-44.87,-44.79,0,*61
1518714273.88,62399,11.13,73124.8,-14.47,-45.07,-44.79,0,*69
1518714275.13,62400,11.19,73130.3,-14.47,-44.99,-44.79,0,*68
1518714276.4,62401,11.19,73128.0,-14.47,-44.87,-44.67,0,*69
1518714277.65,62402,11.19,73134.5,-14.47,-44.99,-44.79,0,*6A
1518714278.9,62403,11.19,73130.8,-14.47,-44.79,-44.61,0,*6C
1518714280.15,62404,11.19,73128.0,-14.47,-44.61,-44.27,0,*60
1518714281.4,62405,11.19,73130.8,-14.45,-44.47,-44.27,0,*67
1518714282.67,62406,11.19,73130.3,-14.47,-44.41,-44.21,0,*66
1518714283.95,62407,11.19,73130.3,-14.47,-44.27,-44.13,0,*66
1518714285.19,62408,11.19,73128.3,-14.45,-44.41,-44.01,0,*68
1518714286.41,62409,11.19,73132.0,-14.45,-44.61,-44.41,0,*6F
1518714287.68,62410,11.19,73134.8,-14.45,-44.67,-44.47,0,*67
1518714288.95,62411,11.19,73132.3,-14.47,-44.67,-44.41,0,*62
1518714290.19,62412,11.19,73132.8,-14.45,-44.41,-44.13,0,*60
1518714291.46,62413,11.19,73138.0,-14.47,-44.41,-44.01,0,*60
1518714292.71,62414,11.19,73138.5,-14.45,-44.13,-43.95,0,*68
1518714293.97,62415,11.19,73138.5,-14.45,-44.13,-43.81,0,*6C
1518714295.22,62416,11.19,73136.3,-14.45,-44.13,-43.75,0,*64
1518714296.44,62417,11.19,73134.3,-14.45,-43.95,-43.61,0,*69
1518714297.71,62418,11.19,73132.8,-14.43,-43.87,-43.67,0,*65
1518714298.96,62419,11.19,73130.3,-14.39,-44.07,-43.75,0,*65
1518714300.26,62420,11.19,73134.3,-14.39,-44.21,-44.13,0,*6C
1518714301.54,62421,11.19,73128.5,-14.39,-44.41,-44.21,0,*6A
1518714302.84,62422,11.19,73130.0,-14.39,-44.21,-44.13,0,*6E
1518714304.12,62423,11.19,73130.3,-14.39,-44.21,-43.95,0,*66
1518714305.39,62424,11.19,73128.3,-14.39,-44.13,-43.87,0,*63
1518714306.65,62425,11.13,73126.0,-14.39,-44.13,-43.87,0,*62
1518714307.93,62426,11.13,73126.3,-14.39,-44.07,-43.67,0,*6A
1518714309.21,62427,11.19,73128.8,-14.37,-44.01,-43.67,0,*63
1518714310.46,62428,11.13,73124.3,-14.37,-44.33,-44.07,0,*6C
1518714311.73,62429,11.19,73130.3,-14.37,-44.33,-44.13,0,*68
1518714313.0,62430,11.19,73128.8,-14.37,-44.33,-44.13,0,*60
1518714314.27,62431,11.19,73124.3,-14.39,-44.41,-44.13,0,*6A
1518714315.51,62432,11.19,73124.8,-14.37,-44.53,-44.47,0,*65
1518714316.79,62433,11.19,73124.3,-14.37,-44.33,-44.13,0,*63
1518714318.05,62434,11.19,73122.3,-14.37,-44.67,-44.47,0,*64
1518714319.32,62435,11.13,73118.8,-14.37,-44.33,-44.13,0,*65
1518714320.61,62436,11.19,73116.3,-14.35,-44.47,-44.13,0,*67
1518714321.86,62437,11.19,73114.5,-14.37,-44.47,-44.27,0,*63
1518714323.13,62438,11.13,73108.0,-14.37,-44.47,-44.13,0,*6B
1518714324.41,62439,11.19,73110.3,-14.37,-44.73,-44.33,0,*6F
1518714325.64,62440,11.13,73112.0,-14.37,-44.53,-44.27,0,*66
1518714326.89,62441,11.19,73112.0,-14.37,-44.47,-44.27,0,*62
1518714328.14,62442,11.13,73108.3,-14.37,-44.87,-44.67,0,*69
1518714329.39,62443,11.13,73108.3,-14.37,-44.73,-44.53,0,*64
1518714330.66,62444,11.19,73114.8,-14.37,-44.73,-44.33,0,*65
1518714331.93,62445,11.13,73112.5,-14.35,-44.47,-44.07,0,*66
1518714333.17,62446,11.13,73112.5,-14.37,-44.33,-44.07,0,*64
1518714334.41,62447,11.19,73118.5,-14.37,-44.27,-44.07,0,*60
1518714335.64,62448,11.19,73114.5,-14.37,-44.27,-44.07,0,*6F
1518714336.91,62449,11.19,73118.5,-14.37,-44.47,-44.13,0,*6D
1518714338.18,62450,11.19,73120.0,-14.37,-44.67,-44.33,0,*65
1518714339.45,62451,11.19,73118.3,-14.37,-44.47,-44.13,0,*64
1518714340.73,62452,11.19,73122.5,-14.37,-44.47,-44.13,0,*67
1518714342.0,62453,11.13,73116.8,-14.37,-44.47,-44.13,0,*66
1518714343.29,62454,11.13,73120.0,-14.35,-44.33,-44.13,0,*60
1518714344.53,62455,11.13,73122.3,-14.35,-44.53,-44.27,0,*60
1518714345.79,62456,11.13,73120.8,-14.35,-44.53,-44.33,0,*66
1518714347.08,62457,11.13,73124.0,-14.35,-44.47,-44.13,0,*60
1518714348.34,62458,11.19,73124.0,-14.35,-44.13,-43.87,0,*64
1518714349.61,62459,11.19,73124.3,-14.35,-44.33,-44.27,0,*6A
1518714350.85,62460,11.19,73126.8,-14.35,-44.07,-43.87,0,*6A
1518714352.09,62461,11.19,73130.3,-14.35,-44.07,-43.87,0,*6B
1518714353.35,62462,11.13,73124.5,-14.35,-44.07,-43.81,0,*6E
1518714354.59,62463,11.19,73128.0,-14.35,-44.27,-44.07,0,*64
1518714355.86,62464,11.13,73130.0,-14.35,-44.13,-44.07,0,*64
1518714357.13,62465,11.19,73134.3,-14.35,-44.27,-44.01,0,*64
1518714358.38,62466,11.13,73130.3,-14.33,-44.21,-44.07,0,*61
1518714359.62,62467,11.13,73130.8,-14.33,-44.47,-44.27,0,*62
1518714360.88,62468,11.19,73132.3,-14.33,-44.27,-44.21,0,*6D
1518714362.13,62469,11.13,73126.5,-14.33,-44.27,-44.21,0,*6C
1518714363.38,62470,11.19,73134.3,-14.33,-44.21,-44.07,0,*66
1518714364.63,62471,11.19,73132.0,-14.31,-44.07,-43.95,0,*6D
1518714365.85,62472,11.13,73132.3,-14.33,-44.41,-44.27,0,*60
1518714367.07,62473,11.19,73134.5,-14.33,-44.61,-44.27,0,*63
1518714368.32,62474,11.13,73128.3,-14.31,-44.61,-44.41,0,*66
1518714369.58,62475,11.19,73132.3,-14.33,-44.47,-44.47,0,*67
1518714370.82,62476,11.19,73128.5,-14.33,-44.61,-44.47,0,*60
1518714372.04,62477,11.13,73124.8,-14.33,-44.61,-44.41,0,*67
1518714373.3,62478,11.13,73130.0,-14.33,-44.67,-44.47,0,*68
1518714374.55,62479,11.13,73134.5,-14.33,-44.67,-44.41,0,*6F
1518714375.79,62480,11.13,73132.5,-14.33,-44.67,-44.41,0,*69
1518714377.08,62481,11.13,73134.3,-14.35,-44.73,-44.47,0,*6D
1518714378.31,62482,11.13,73134.0,-14.33,-44.61,-44.47,0,*6B
1518714379.58,62483,11.19,73134.8,-14.35,-44.33,-44.27,0,*6D
1518714380.87,62484,11.13,73132.8,-14.35,-44.33,-44.13,0,*6D
1518714382.14,62485,11.13,73134.5,-14.35,-44.27,-44.01,0,*6A
1518714383.4,62486,11.13,73134.0,-14.35,-44.47,-44.27,0,*6B
1518714384.65,62487,11.13,73134.0,-14.37,-44.33,-44.07,0,*69
1518714385.94,62488,11.13,73134.5,-14.35,-44.67,-44.47,0,*61
1518714387.16,62489,11.13,73134.0,-14.37,-44.87,-44.53,0,*69
1518714388.43,62490,11.13,73134.3,-14.35,-44.87,-44.67,0,*64
1518714389.7,62491,11.13,73132.3,-14.37,-44.67,-44.67,0,*69
1518714390.94,62492,11.13,73132.5,-14.37,-44.53,-44.47,0,*6F
1518714392.19,62493,11.13,73134.5,-14.35,-44.53,-44.27,0,*6A
1518714393.44,62494,11.19,73136.3,-14.37,-44.47,-44.27,0,*6A
1518714394.71,62495,11.13,73134.8,-14.35,-44.27,-44.01,0,*6B
1518714395.97,62496,11.13,73132.5,-14.35,-44.13,-43.87,0,*66
1518714397.21,62497,11.13,73136.8,-14.35,-44.27,-43.87,0,*60
1518714398.46,62498,11.13,73138.8,-14.35,-44.27,-43.87,0,*6F
1518714399.73,62499,11.13,73136.5,-14.35,-44.27,-44.01,0,*67
1518714400.99,62500,11.13,73134.5,-14.35,-44.53,-44.47,0,*67
1518714402.28,62501,11.19,73138.8,-14.35,-44.67,-44.33,0,*62
1518714403.54,62502,11.13,73134.8,-14.35,-44.73,-44.53,0,*62
1518714404.81,62503,11.13,73138.8,-14.35,-44.47,-44.27,0,*67
1518714406.03,62504,11.13,73138.8,-14.37,-44.53,-44.53,0,*64
1518714407.3,62505,11.13,73138.8,-14.37,-44.73,-44.47,0,*62
1518714408.59,62506,11.13,73136.3,-14.35,-44.73,-44.33,0,*60
1518714409.88,62507,11.13,73138.5,-14.35,-44.47,-44.13,0,*64
1518714411.13,62508,11.13,73138.3,-14.37,-44.47,-44.07,0,*6C
1518714412.4,62509,11.13,73136.5,-14.37,-44.67,-44.47,0,*6B
1518714413.67,62510,11.13,73132.8,-14.37,-44.67,-44.33,0,*60
1518714414.9,62511,11.13,73134.0,-14.37,-44.87,-44.53,0,*69
1518714416.14,62512,11.13,73136.5,-14.37,-44.53,-44.47,0,*66
1518714417.41,62513,11.13,73136.8,-14.37,-44.73,-44.47,0,*65
1518714418.7,62514,11.13,73136.5,-14.35,-44.67,-44.47,0,*65
1518714419.98,62515,11.13,73134.5,-14.35,-44.67,-44.47,0,*64
1518714421.23,62516,11.19,73138.3,-14.37,-44.87,-44.47,0,*6B
1518714422.48,62517,11.13,73134.3,-14.37,-44.73,-44.53,0,*64
1518714423.71,62518,11.13,73132.8,-14.37,-45.13,-44.87,0,*65
1518714424.98,62519,11.13,73136.8,-14.39,-45.33,-44.93,0,*6D
1518714426.25,62520,11.13,73136.5,-14.39,-44.93,-44.61,0,*61
1518714427.5,62521,11.13,73132.8,-14.43,-44.99,-44.53,0,*66
1518714428.77,62522,11.13,73134.8,-14.39,-44.73,-44.41,0,*6F
1518714430.04,62523,11.13,73134.5,-14.39,-44.61,-44.13,0,*6A
1518714431.32,62524,11.13,73136.0,-14.39,-44.73,-44.41,0,*69
1518714432.59,62525,11.13,73136.8,-14.39,-44.99,-44.73,0,*6D
1518714433.85,62526,11.19,73142.3,-14.39,-44.79,-44.53,0,*62
1518714435.1,62527,11.13,73138.0,-14.39,-44.79,-44.41,0,*60
1518714436.35,62528,11.13,73134.8,-14.39,-44.79,-44.53,0,*6C
1518714437.62,62529,11.13,73134.5,-14.39,-44.61,-44.33,0,*62
1518714438.93,62530,11.13,73136.0,-14.39,-44.73,-44.21,0,*6A
1518714440.2,62531,11.13,73134.8,-14.39,-44.53,-44.33,0,*6A
1518714441.47,62532,11.13,73138.0,-14.39,-44.61,-44.33,0,*68
1518714442.77,62533,11.13,73130.8,-14.39,-44.73,-44.33,0,*6A
1518714444.07,62534,11.13,73132.5,-14.43,-44.73,-44.21,0,*63
1518714445.37,62535,11.13,73134.3,-14.39,-44.73,-44.33,0,*6C
1518714446.65,62536,11.13,73138.3,-14.43,-44.73,-44.53,0,*64
1518714447.9,62537,11.13,73134.8,-14.43,-44.79,-44.53,0,*6F
1518714449.2,62538,11.13,73134.3,-14.43,-44.93,-44.73,0,*66
1518714450.45,62539,11.13,73136.3,-14.43,-44.79,-44.61,0,*60
1518714451.7,62540,11.13,73138.3,-14.43,-45.13,-44.79,0,*6A
1518714452.94,62541,11.13,73136.3,-14.43,-45.13,-44.79,0,*6B
1518714454.22,62542,11.13,73138.3,-14.43,-45.21,-44.93,0,*6D
1518714455.47,62543,11.13,73136.5,-14.43,-44.99,-44.79,0,*6A
1518714456.75,62544,11.13,73140.0,-14.43,-45.13,-44.93,0,*6A
1518714458.02,62545,11.13,73138.0,-14.43,-44.99,-44.73,0,*66
1518714459.3,62546,11.13,73136.0,-14.43,-44.99,-44.73,0,*65
1518714460.52,62547,11.13,73138.5,-14.45,-44.99,-44.79,0,*68
1518714461.78,62548,11.13,73138.5,-14.47,-44.79,-44.61,0,*62
1518714463.02,62549,11.13,73138.5,-14.45,-44.79,-44.47,0,*65
1518714464.27,62550,11.13,73138.8,-14.45,-44.79,-44.47,0,*6D
1518714465.52,62551,11.13,73140.0,-14.45,-44.87,-44.67,0,*6F
1518714466.79,62552,11.13,73136.5,-14.47,-44.99,-44.67,0,*61
1518714468.04,62553,11.13,73134.3,-14.47,-44.79,-44.41,0,*6A
1518714469.3,62554,11.13,73136.5,-14.45,-44.67,-44.47,0,*66
1518714470.58,62555,11.13,73132.5,-14.47,-45.07,-44.79,0,*6F
1518714471.83,62556,11.13,73136.3,-14.47,-44.87,-44.61,0,*6C
1518714473.08,62557,11.13,73136.3,-14.45,-44.87,-44.47,0,*6B
1518714474.35,62558,11.13,73132.5,-14.45,-44.67,-44.47,0,*6A
1518714475.6,62559,11.13,73136.8,-14.47,-44.79,-44.41,0,*60
1518714476.85,62560,11.13,73136.5,-14.45,-45.07,-44.79,0,*6B
1518714478.12,62561,11.13,73138.3,-14.47,-44.87,-44.47,0,*6C
1518714479.39,62562,11.13,73136.0,-14.49,-45.07,-44.67,0,*6A
1518714480.64,62563,11.13,73138.8,-14.49,-45.13,-44.73,0,*6B
1518714481.91,62564,11.13,73136.5,-14.47,-44.87,-44.47,0,*69
1518714483.16,62565,11.13,73138.5,-14.47,-44.79,-44.41,0,*6F
1518714484.41,62566,11.13,73136.8,-14.45,-44.67,-44.27,0,*61
1518714485.71,62567,11.13,73136.0,-14.47,-44.67,-44.21,0,*64
1518714486.98,62568,11.13,73136.5,-14.47,-44.99,-44.47,0,*6A
1518714488.23,62569,11.13,73138.3,-14.47,-44.99,-44.61,0,*6F
1518714489.48,62570,11.13,73136.8,-14.49,-44.93,-44.53,0,*62
1518714490.73,62571,11.13,73134.5,-14.49,-44.93,-44.53,0,*63
1518714491.99,62572,11.13,73136.8,-14.49,-45.07,-44.67,0,*6B
1518714493.28,62573,11.13,73138.0,-14.49,-45.27,-44.93,0,*63
1518714494.56,62574,11.13,73138.8,-14.49,-45.27,-44.73,0,*6A
1518714495.83,62575,11.13,73138.8,-14.53,-44.93,-44.47,0,*69